Terminal Aerodrome Forecast
Issued by NWS Portland, OR

Home | Current Version | Previous Version | Text Only | Print | Product List | Glossary On
Versions: 1 2 3 4 5 6 7 8 9 10 11 12 13 14 15 16 17 18 19 20 21 22 23 24 25 26 27 28 29 30 31 32 33 34 35 36 37 38 39 40 41 42 43 44 45 46 47 48 49 50
652
FTUS46 KPQR 220901 AAA
TAFPDX
TAF AMD
KPDX 220901Z 2209/2306 11008KT P6SM SCT050 OVC100
     FM221100 11016G22KT P6SM -RA OVC035
     FM222100 15011KT P6SM -SHRA BKN050 OVC070
     FM230000 12010KT P6SM -SHRA BKN050 BKN100=

USA.gov is the U.S. government's official web portal to all federal, state and local government web resources and services.